FW6591 Weather Reports


time (UTC)temp
C
wind
direction
speed
KPH
gust
KPH
rain 1hr
cm
rain 24hr
cm
rain mn
cm
humidity
%
barometer
mb
20260906030132 11 211 3.2 11.3 0.00 0.00 0.00 87 1031.2
20260906024557 11 207 3.2 6.4 0.00 0.00 0.00 87 1031.1
20260906023058 11 206 4.8 9.7 0.00 0.00 0.00 87 1030.8
20260906021610 11 205 3.2 9.7 0.00 0.00 0.00 86 1030.8
20260906020100 11 221 3.2 8.0 0.00 0.00 0.00 86 1030.9
20260906014552 11 219 4.8 11.3 0.00 0.00 0.00 86 1030.8
20260906013100 11 198 3.2 8.0 0.00 0.00 0.00 86 1030.8
20260906011605 11 238 3.2 9.7 0.00 0.00 0.00 87 1030.7
20260906010100 11 218 4.8 9.7 0.00 0.00 0.00 88 1030.8
20260906004556 11 186 4.8 9.7 0.00 0.00 0.00 89 1030.6
20260906003108 12 212 4.8 11.3 0.00 0.00 0.00 88 1030.6
20260906001547 12 194 6.4 11.3 0.00 0.00 0.00 88 1030.7
20260906000057 12 234 4.8 9.7 0.00 0.00 0.00 88 1030.6
20260905234603 12 196 3.2 8.0 0.00 0.00 0.00 89 1030.9
20260905233049 12 196 3.2 8.0 0.00 0.00 0.00 89 1030.7
20260905231557 12 195 3.2 8.0 0.00 0.00 0.00 89 1030.8
20260905230058 12 184 1.6 8.0 0.00 0.00 0.00 89 1030.8
20260905224548 12 190 4.8 9.7 0.00 0.00 0.00 88 1030.8
20260905223057 12 175 4.8 11.3 0.00 0.00 0.00 88 1030.7
20260905221550 12 194 6.4 11.3 0.00 0.00 0.00 88 1030.7
20260905220052 12 192 3.2 8.0 0.00 0.00 0.00 86 1030.8
20260905214606 12 207 3.2 9.7 0.00 0.00 0.00 86 1030.5
20260905213103 12 217 1.6 8.0 0.00 0.00 0.00 86 1030.5
20260905211554 12 232 4.8 11.3 0.00 0.00 0.00 87 1030.3
20260905210052 12 192 3.2 11.3 0.00 0.00 0.00 87 1030.5
20260905204545 12 202 4.8 11.3 0.00 0.00 0.00 86 1030.7
20260905203055 12 150 3.2 8.0 0.00 0.00 0.00 86 1030.8
20260905201550 12 201 3.2 8.0 0.00 0.00 0.00 86 1030.9
20260905200054 12 194 4.8 9.7 0.00 0.00 0.00 86 1031.0
20260905194559 12 228 3.2 14.5 0.00 0.00 0.00 85 1030.9
20260905193054 12 227 3.2 11.3 0.00 0.00 0.00 85 1030.8
20260905191556 12 225 4.8 11.3 0.00 0.00 0.00 85 1030.9
20260905190051 12 245 4.8 14.5 0.00 0.00 0.00 85 1030.7
20260905184603 12 213 8.0 17.7 0.00 0.00 0.00 84 1030.4
20260905183100 12 239 6.4 14.5 0.00 0.00 0.00 84 1030.3
20260905181552 13 229 4.8 14.5 0.00 0.00 0.00 83 1030.4
20260905180051 13 214 4.8 11.3 0.00 0.00 0.00 81 1030.3
20260905174550 13 193 3.2 6.4 0.00 0.00 0.00 80 1030.5
20260905173108 13 218 1.6 6.4 0.00 0.00 0.00 79 1030.0
20260905171553 13 223 3.2 8.0 0.00 0.00 0.00 77 1030.0
20260905170050 14 236 3.2 8.0 0.00 0.00 0.00 76 1029.9
20260905164548 14 217 1.6 6.4 0.00 0.00 0.00 75 1029.6
20260905163100 15 248 4.8 9.7 0.00 0.00 0.00 73 1029.6
20260905161551 15 222 4.8 9.7 0.00 0.00 0.00 73 1029.6
20260905160100 15 0 0.0 3.2 0.00 0.00 0.00 74 1029.4
20260905154557 15 0 0.0 3.2 0.00 0.00 0.00 71 1029.3
20260905153045 15 165 1.6 4.8 0.00 0.00 0.00 70 1029.2
20260905151552 16 0 0.0 3.2 0.00 0.00 0.00 68 1029.2
20260905150055 16 0 0.0 3.2 0.00 0.00 0.00 63 1029.0
20260905144553 16 222 0.0 4.8 0.00 0.00 0.00 64 1028.8
20260905143057 16 191 1.6 6.4 0.00 0.00 0.00 63 1028.9
20260905141609 16 0 1.6 8.0 0.00 0.00 0.00 63 1028.9
20260905140058 16 95 1.6 6.4 0.00 0.00 0.00 63 1028.8
20260905134607 16 202 3.2 9.7 0.00 0.00 0.00 64 1028.6
20260905133057 16 173 6.4 9.7 0.00 0.00 0.00 67 1028.8
20260905131556 16 244 1.6 8.0 0.00 0.00 0.00 63 1028.9
20260905130101 16 0 1.6 8.0 0.00 0.00 0.00 67 1029.0
20260905124555 15 40 0.0 3.2 0.00 0.00 0.00 72 1029.3
20260905123056 14 217 3.2 6.4 0.00 0.00 0.00 71 1029.5
20260905121545 13 213 1.6 6.4 0.00 0.00 0.00 73 1030.0
20260905120058 13 219 0.0 4.8 0.00 0.00 0.00 74 1030.0
20260905114626 13 203 3.2 11.3 0.00 0.00 0.00 75 1030.2
20260905113050 13 212 6.4 12.9 0.00 0.00 0.00 73 1030.5
20260905111553 13 200 1.6 6.4 0.00 0.00 0.00 76 1030.6
20260905110044 13 223 1.6 11.3 0.00 0.00 0.00 74 1030.8
20260905104553 12 227 1.6 6.4 0.00 0.00 0.00 75 1030.7
20260905103052 13 245 3.2 9.7 0.00 0.00 0.00 73 1031.0
20260905101557 12 157 6.4 12.9 0.00 0.00 0.00 77 1031.4
20260905100114 11 212 3.2 8.0 0.00 0.00 0.00 80 1031.6
20260905094610 11 242 4.8 11.3 0.00 0.00 0.00 81 1032.1
20260905093059 11 192 4.8 9.7 0.00 0.00 0.00 83 1032.3
20260905091612 10 82 1.6 6.4 0.00 0.00 0.00 82 1032.6
20260905090056 10 136 1.6 4.8 0.00 0.00 0.00 81 1032.6
20260905084553 10 182 1.6 4.8 0.00 0.00 0.00 82 1032.3
20260905083050 10 215 1.6 4.8 0.00 0.00 0.00 84 1032.9
20260905081556 10 106 3.2 8.0 0.00 0.00 0.00 82 1032.8
20260905080056 10 217 0.0 4.8 0.00 0.00 0.00 81 1032.8
20260905074600 10 222 0.0 3.2 0.00 0.05 0.00 83 1032.8
20260905073108 9 125 1.6 8.0 0.00 0.05 0.00 84 1032.6
20260905071558 9 171 3.2 6.4 0.00 0.05 0.00 86 1032.3
20260905070047 8 215 0.0 3.2 0.00 0.05 0.00 88 1032.6
20260905064608 8 214 0.0 3.2 0.00 0.10 0.00 90 1032.3
20260905063053 7 0 1.6 3.2 0.00 0.10 0.00 90 1032.3
20260905061613 7 235 1.6 3.2 0.00 0.10 0.00 91 1032.3
20260905054602 6 0 0.0 1.6 0.00 0.13 0.00 92 1032.3
20260905053056 6 0 0.0 0.0 0.00 0.13 0.00 93 1032.3
20260905051610 6 0 0.0 0.0 0.00 0.13 0.00 92 1032.2
20260905050056 6 0 0.0 0.0 0.00 0.13 0.00 92 1032.2
20260905044559 5 0 0.0 3.2 0.00 0.13 0.00 92 1032.1
20260905043049 6 0 1.6 6.4 0.00 0.13 0.00 92 1032.1
20260905041558 6 0 0.0 3.2 0.00 0.13 0.00 92 1031.7
20260905040058 6 319 0.0 3.2 0.00 0.13 0.00 92 1031.6
20260905034605 5 360 0.0 3.2 0.00 0.13 0.00 92 1031.4
20260905033102 6 0 0.0 3.2 0.00 0.13 0.00 92 1031.1
20260905031613 6 0 1.6 3.2 0.00 0.13 0.00 91 1030.9